Hauptseite
METAR-TAF:

METAR-TAF

Flughäfen :

Chapecó, Santa Catarina, Brasilien

Breite: 27-08-02S, Länge: 052-39-43W, Höhe: 654 m

Beobachtung

Neuester Wetterbericht von vor 34 Minuten, um 02:00 UTC
Wind 4 kt aus Nord/Nordost
Temperatur 21°C
Luftfeuchtigkeit 60%
Luftdruck 1020 hPa
Sichtweite 10 km oder mehr
keine Wolken unter 1500 m und keine Kumulonimbus oder Gewitterwolken

METAR: SBCH 180200Z 03004KT CAVOK 21/13 Q1020

Zeit: 23:34 (02:34 UTC)


TAF: fehlend

Wetterbeobachtungen und Prognosen von mehr als 4000 Flughäfen (METAR und TAF Bericht).

Die verfügbaren Stationen werden durch gelbe und rote Markierungen auf der Karte dargestellt.

Führen Sie die Maus auf sie, um den Namen der Station zu sehen.

Darauf klicken, um die Beobachtung von Wetterbeobachtungen und Prognosen zu sehen.

Um die Karte zu ändern : klicken Sie auf den grünen Tasten mit einem schwarzen Kreuz Zum Vergrößern, auf den grünen Button mit einem Gedankenstrich zu verkleinern, oder auf die grünen Pfeile für benachbarte Karten.


METAR-TAF: